Today
| Time | Wind Dr | Wind Spd mph |
Wind Gust mph |
Hum In % |
Humid % |
TempI F |
Temp F |
Raw Bar in |
Tot Rain in |
UV | Solar W/sqm |
DailyRain in |
HourRain in |
24HrRain in |
RainRate in |
|---|---|---|---|---|---|---|---|---|---|---|---|---|---|---|---|
| 05/07/26 12:01:30 AM | 37 | 0.0 | 0.0 | 53 | 75 | 69.4 | 59.0 | 30.065 | 7.26 | 0.0 | 0 | 0.00 | 0.00 | 0.00 | 0.00 |
| 05/07/26 12:02:22 AM | 38 | 0.0 | 0.0 | 53 | 75 | 69.4 | 59.0 | 30.065 | 7.26 | 0.0 | 0 | 0.00 | 0.00 | 0.00 | 0.00 |
| 05/07/26 12:03:28 AM | 34 | 0.0 | 0.0 | 53 | 75 | 69.4 | 58.9 | 30.064 | 7.26 | 0.0 | 0 | 0.00 | 0.00 | 0.00 | 0.00 |
| 05/07/26 12:04:22 AM | 36 | 0.0 | 0.0 | 53 | 75 | 69.4 | 58.9 | 30.063 | 7.26 | 0.0 | 0 | 0.00 | 0.00 | 0.00 | 0.00 |
| 05/07/26 12:05:32 AM | 36 | 0.0 | 0.0 | 53 | 75 | 69.4 | 58.9 | 30.063 | 7.26 | 0.0 | 0 | 0.00 | 0.00 | 0.00 | 0.00 |
| 05/07/26 12:06:26 AM | 38 | 0.0 | 0.0 | 53 | 75 | 69.4 | 58.9 | 30.065 | 7.26 | 0.0 | 0 | 0.00 | 0.00 | 0.00 | 0.00 |
| 05/07/26 12:07:18 AM | 32 | 0.0 | 0.0 | 53 | 75 | 69.4 | 58.8 | 30.062 | 7.26 | 0.0 | 0 | 0.00 | 0.00 | 0.00 | 0.00 |
| 05/07/26 12:08:24 AM | 35 | 0.0 | 0.0 | 53 | 76 | 69.4 | 58.8 | 30.060 | 7.26 | 0.0 | 0 | 0.00 | 0.00 | 0.00 | 0.00 |
| 05/07/26 12:09:16 AM | 37 | 0.0 | 0.0 | 53 | 76 | 69.4 | 58.8 | 30.062 | 7.26 | 0.0 | 0 | 0.00 | 0.00 | 0.00 | 0.00 |
| 05/07/26 12:10:29 AM | 32 | 0.0 | 0.0 | 53 | 76 | 69.4 | 58.8 | 30.062 | 7.26 | 0.0 | 0 | 0.00 | 0.00 | 0.00 | 0.00 |
| 05/07/26 12:11:20 AM | 31 | 0.0 | 0.0 | 53 | 76 | 69.4 | 58.8 | 30.064 | 7.26 | 0.0 | 0 | 0.00 | 0.00 | 0.00 | 0.00 |
| 05/07/26 12:12:33 AM | 31 | 0.0 | 0.0 | 53 | 76 | 69.4 | 58.8 | 30.063 | 7.26 | 0.0 | 0 | 0.00 | 0.00 | 0.00 | 0.00 |
| 05/07/26 12:13:22 AM | 36 | 0.0 | 0.0 | 53 | 76 | 69.4 | 58.7 | 30.063 | 7.26 | 0.0 | 0 | 0.00 | 0.00 | 0.00 | 0.00 |
| 05/07/26 12:14:35 AM | 37 | 0.0 | 0.0 | 53 | 76 | 69.4 | 58.7 | 30.061 | 7.26 | 0.0 | 0 | 0.00 | 0.00 | 0.00 | 0.00 |
| 05/07/26 12:15:48 AM | 36 | 0.0 | 0.0 | 53 | 76 | 69.4 | 58.7 | 30.062 | 7.26 | 0.0 | 0 | 0.00 | 0.00 | 0.00 | 0.00 |
| 05/07/26 12:16:18 AM | 36 | 0.0 | 0.0 | 53 | 76 | 69.4 | 58.7 | 30.059 | 7.26 | 0.0 | 0 | 0.00 | 0.00 | 0.00 | 0.00 |
| 05/07/26 12:17:31 AM | 36 | 0.0 | 0.0 | 53 | 76 | 69.4 | 58.7 | 30.058 | 7.26 | 0.0 | 0 | 0.00 | 0.00 | 0.00 | 0.00 |
| 05/07/26 12:18:23 AM | 38 | 0.0 | 0.0 | 53 | 76 | 69.4 | 58.7 | 30.059 | 7.26 | 0.0 | 0 | 0.00 | 0.00 | 0.00 | 0.00 |
| 05/07/26 12:19:30 AM | 38 | 0.0 | 0.0 | 53 | 76 | 69.4 | 58.7 | 30.058 | 7.26 | 0.0 | 0 | 0.00 | 0.00 | 0.00 | 0.00 |
| 05/07/26 12:20:22 AM | 34 | 0.0 | 0.0 | 53 | 76 | 69.4 | 58.7 | 30.059 | 7.26 | 0.0 | 0 | 0.00 | 0.00 | 0.00 | 0.00 |
| 05/07/26 12:21:34 AM | 36 | 0.0 | 0.0 | 53 | 76 | 69.4 | 58.6 | 30.059 | 7.26 | 0.0 | 0 | 0.00 | 0.00 | 0.00 | 0.00 |
| 05/07/26 12:22:26 AM | 36 | 0.0 | 0.0 | 53 | 76 | 69.4 | 58.6 | 30.059 | 7.26 | 0.0 | 0 | 0.00 | 0.00 | 0.00 | 0.00 |
| 05/07/26 12:23:18 AM | 30 | 0.0 | 0.0 | 53 | 76 | 69.4 | 58.6 | 30.058 | 7.26 | 0.0 | 0 | 0.00 | 0.00 | 0.00 | 0.00 |
| 05/07/26 12:24:25 AM | 36 | 0.0 | 0.0 | 53 | 76 | 69.4 | 58.6 | 30.056 | 7.26 | 0.0 | 0 | 0.00 | 0.00 | 0.00 | 0.00 |
| 05/07/26 12:25:16 AM | 34 | 0.0 | 0.0 | 53 | 76 | 69.4 | 58.6 | 30.058 | 7.26 | 0.0 | 0 | 0.00 | 0.00 | 0.00 | 0.00 |
| 05/07/26 12:26:32 AM | 37 | 0.0 | 0.0 | 53 | 76 | 69.4 | 58.6 | 30.058 | 7.26 | 0.0 | 0 | 0.00 | 0.00 | 0.00 | 0.00 |
| 05/07/26 12:27:24 AM | 34 | 0.0 | 0.0 | 53 | 76 | 69.4 | 58.6 | 30.056 | 7.26 | 0.0 | 0 | 0.00 | 0.00 | 0.00 | 0.00 |
| 05/07/26 12:28:37 AM | 37 | 0.0 | 0.0 | 53 | 76 | 69.4 | 58.6 | 30.059 | 7.26 | 0.0 | 0 | 0.00 | 0.00 | 0.00 | 0.00 |
| 05/07/26 12:29:29 AM | 36 | 0.0 | 0.0 | 53 | 76 | 69.4 | 58.6 | 30.056 | 7.26 | 0.0 | 0 | 0.00 | 0.00 | 0.00 | 0.00 |
| 05/07/26 12:30:39 AM | 34 | 0.0 | 0.0 | 53 | 76 | 69.4 | 58.6 | 30.058 | 7.26 | 0.0 | 0 | 0.00 | 0.00 | 0.00 | 0.00 |
| 05/07/26 12:31:27 AM | 39 | 0.0 | 0.0 | 53 | 76 | 69.3 | 58.5 | 30.058 | 7.26 | 0.0 | 0 | 0.00 | 0.00 | 0.00 | 0.00 |
| 05/07/26 12:32:19 AM | 32 | 0.0 | 0.0 | 53 | 76 | 69.4 | 58.5 | 30.056 | 7.26 | 0.0 | 0 | 0.00 | 0.00 | 0.00 | 0.00 |
| 05/07/26 12:33:32 AM | 38 | 0.0 | 0.0 | 53 | 77 | 69.4 | 58.5 | 30.059 | 7.26 | 0.0 | 0 | 0.00 | 0.00 | 0.00 | 0.00 |
| 05/07/26 12:34:24 AM | 31 | 0.0 | 0.0 | 53 | 77 | 69.4 | 58.5 | 30.057 | 7.26 | 0.0 | 0 | 0.00 | 0.00 | 0.00 | 0.00 |
| 05/07/26 12:35:31 AM | 35 | 0.0 | 0.0 | 53 | 77 | 69.4 | 58.5 | 30.057 | 7.26 | 0.0 | 0 | 0.00 | 0.00 | 0.00 | 0.00 |
| 05/07/26 12:36:25 AM | 36 | 0.0 | 0.0 | 53 | 77 | 69.4 | 58.4 | 30.058 | 7.26 | 0.0 | 0 | 0.00 | 0.00 | 0.00 | 0.00 |
| 05/07/26 12:37:35 AM | 38 | 0.0 | 0.0 | 53 | 77 | 69.4 | 58.4 | 30.057 | 7.26 | 0.0 | 0 | 0.00 | 0.00 | 0.00 | 0.00 |
| 05/07/26 12:38:27 AM | 36 | 0.0 | 0.0 | 53 | 77 | 69.4 | 58.4 | 30.058 | 7.26 | 0.0 | 0 | 0.00 | 0.00 | 0.00 | 0.00 |
| 05/07/26 12:39:19 AM | 38 | 0.0 | 0.0 | 53 | 77 | 69.3 | 58.3 | 30.056 | 7.26 | 0.0 | 0 | 0.00 | 0.00 | 0.00 | 0.00 |
| 05/07/26 12:40:29 AM | 38 | 0.0 | 0.0 | 53 | 77 | 69.4 | 58.3 | 30.056 | 7.26 | 0.0 | 0 | 0.00 | 0.00 | 0.00 | 0.00 |
| 05/07/26 12:41:20 AM | 38 | 0.0 | 0.0 | 53 | 77 | 69.3 | 58.2 | 30.056 | 7.26 | 0.0 | 0 | 0.00 | 0.00 | 0.00 | 0.00 |
| 05/07/26 12:42:33 AM | 37 | 0.0 | 0.0 | 53 | 77 | 69.3 | 58.2 | 30.057 | 7.26 | 0.0 | 0 | 0.00 | 0.00 | 0.00 | 0.00 |
| 05/07/26 12:43:22 AM | 32 | 0.0 | 0.0 | 53 | 77 | 69.4 | 58.2 | 30.057 | 7.26 | 0.0 | 0 | 0.00 | 0.00 | 0.00 | 0.00 |
| 05/07/26 12:44:17 AM | 34 | 0.0 | 0.0 | 53 | 77 | 69.4 | 58.1 | 30.058 | 7.26 | 0.0 | 0 | 0.00 | 0.00 | 0.00 | 0.00 |
| 05/07/26 12:45:30 AM | 37 | 0.0 | 0.0 | 53 | 77 | 69.3 | 58.1 | 30.056 | 7.26 | 0.0 | 0 | 0.00 | 0.00 | 0.00 | 0.00 |
| 05/07/26 12:46:36 AM | 38 | 0.0 | 0.0 | 53 | 77 | 69.3 | 58.1 | 30.056 | 7.26 | 0.0 | 0 | 0.00 | 0.00 | 0.00 | 0.00 |
| 05/07/26 12:47:28 AM | 35 | 0.0 | 0.0 | 53 | 77 | 69.4 | 58.1 | 30.056 | 7.26 | 0.0 | 0 | 0.00 | 0.00 | 0.00 | 0.00 |
| 05/07/26 12:48:20 AM | 37 | 0.0 | 0.0 | 53 | 77 | 69.3 | 58.0 | 30.055 | 7.26 | 0.0 | 0 | 0.00 | 0.00 | 0.00 | 0.00 |
| 05/07/26 12:49:33 AM | 37 | 0.0 | 0.0 | 53 | 77 | 69.3 | 58.0 | 30.053 | 7.26 | 0.0 | 0 | 0.00 | 0.00 | 0.00 | 0.00 |
| 05/07/26 12:50:25 AM | 37 | 0.0 | 0.0 | 53 | 77 | 69.3 | 58.0 | 30.055 | 7.26 | 0.0 | 0 | 0.00 | 0.00 | 0.00 | 0.00 |
| 05/07/26 12:51:32 AM | 34 | 0.0 | 0.0 | 53 | 77 | 69.4 | 58.0 | 30.057 | 7.26 | 0.0 | 0 | 0.00 | 0.00 | 0.00 | 0.00 |
| 05/07/26 12:52:26 AM | 35 | 0.0 | 0.0 | 53 | 77 | 69.3 | 57.9 | 30.054 | 7.26 | 0.0 | 0 | 0.00 | 0.00 | 0.00 | 0.00 |
| 05/07/26 12:53:18 AM | 38 | 0.0 | 0.0 | 53 | 77 | 69.4 | 57.9 | 30.054 | 7.26 | 0.0 | 0 | 0.00 | 0.00 | 0.00 | 0.00 |
| 05/07/26 12:54:31 AM | 34 | 0.0 | 0.0 | 53 | 77 | 69.3 | 57.9 | 30.055 | 7.26 | 0.0 | 0 | 0.00 | 0.00 | 0.00 | 0.00 |
| 05/07/26 12:55:23 AM | 34 | 0.0 | 0.0 | 53 | 77 | 69.3 | 57.8 | 30.054 | 7.26 | 0.0 | 0 | 0.00 | 0.00 | 0.00 | 0.00 |
| 05/07/26 12:56:33 AM | 36 | 0.0 | 0.0 | 53 | 77 | 69.4 | 57.8 | 30.056 | 7.26 | 0.0 | 0 | 0.00 | 0.00 | 0.00 | 0.00 |
| 05/07/26 12:57:24 AM | 34 | 0.0 | 0.0 | 53 | 78 | 69.3 | 57.7 | 30.053 | 7.26 | 0.0 | 0 | 0.00 | 0.00 | 0.00 | 0.00 |
| 05/07/26 12:58:34 AM | 34 | 0.0 | 0.0 | 53 | 78 | 69.4 | 57.7 | 30.057 | 7.26 | 0.0 | 0 | 0.00 | 0.00 | 0.00 | 0.00 |
| 05/07/26 12:59:26 AM | 36 | 0.0 | 0.0 | 53 | 78 | 69.3 | 57.7 | 30.056 | 7.26 | 0.0 | 0 | 0.00 | 0.00 | 0.00 | 0.00 |
| 05/07/26 1:00:21 AM | 37 | 0.0 | 0.0 | 53 | 78 | 69.3 | 57.7 | 30.056 | 7.26 | 0.0 | 0 | 0.00 | 0.00 | 0.00 | 0.00 |
| 05/07/26 1:01:34 AM | 37 | 0.0 | 0.0 | 53 | 78 | 69.3 | 57.7 | 30.054 | 7.26 | 0.0 | 0 | 0.00 | 0.00 | 0.00 | 0.00 |
| 05/07/26 1:02:20 AM | 34 | 0.0 | 0.0 | 53 | 78 | 69.3 | 57.7 | 30.055 | 7.26 | 0.0 | 0 | 0.00 | 0.00 | 0.00 | 0.00 |
| 05/07/26 1:03:32 AM | 35 | 0.0 | 0.0 | 53 | 78 | 69.3 | 57.6 | 30.053 | 7.26 | 0.0 | 0 | 0.00 | 0.00 | 0.00 | 0.00 |
| 05/07/26 1:04:24 AM | 36 | 0.0 | 0.0 | 53 | 78 | 69.4 | 57.6 | 30.054 | 7.26 | 0.0 | 0 | 0.00 | 0.00 | 0.00 | 0.00 |
| 05/07/26 1:05:16 AM | 37 | 0.0 | 0.0 | 53 | 78 | 69.3 | 57.6 | 30.056 | 7.26 | 0.0 | 0 | 0.00 | 0.00 | 0.00 | 0.00 |
| 05/07/26 1:06:29 AM | 34 | 0.0 | 0.0 | 53 | 78 | 69.3 | 57.5 | 30.055 | 7.26 | 0.0 | 0 | 0.00 | 0.00 | 0.00 | 0.00 |
| 05/07/26 1:07:18 AM | 32 | 0.0 | 0.0 | 53 | 78 | 69.3 | 57.5 | 30.054 | 7.26 | 0.0 | 0 | 0.00 | 0.00 | 0.00 | 0.00 |
| 05/07/26 1:08:31 AM | 36 | 0.0 | 0.0 | 53 | 78 | 69.3 | 57.5 | 30.056 | 7.26 | 0.0 | 0 | 0.00 | 0.00 | 0.00 | 0.00 |
| 05/07/26 1:09:22 AM | 34 | 0.0 | 0.0 | 53 | 78 | 69.3 | 57.5 | 30.054 | 7.26 | 0.0 | 0 | 0.00 | 0.00 | 0.00 | 0.00 |
| 05/07/26 1:10:32 AM | 34 | 0.0 | 0.0 | 53 | 78 | 69.3 | 57.4 | 30.055 | 7.26 | 0.0 | 0 | 0.00 | 0.00 | 0.00 | 0.00 |
| 05/07/26 1:11:24 AM | 35 | 0.0 | 0.0 | 53 | 78 | 69.3 | 57.4 | 30.055 | 7.26 | 0.0 | 0 | 0.00 | 0.00 | 0.00 | 0.00 |
| 05/07/26 1:12:19 AM | 37 | 0.0 | 0.0 | 53 | 78 | 69.3 | 57.4 | 30.055 | 7.26 | 0.0 | 0 | 0.00 | 0.00 | 0.00 | 0.00 |
| 05/07/26 1:13:26 AM | 38 | 0.0 | 0.0 | 53 | 78 | 69.3 | 57.3 | 30.055 | 7.26 | 0.0 | 0 | 0.00 | 0.00 | 0.00 | 0.00 |
| 05/07/26 1:14:18 AM | 36 | 0.0 | 0.0 | 53 | 78 | 69.3 | 57.3 | 30.055 | 7.26 | 0.0 | 0 | 0.00 | 0.00 | 0.00 | 0.00 |
| 05/07/26 1:15:30 AM | 34 | 0.0 | 0.0 | 53 | 78 | 69.2 | 57.3 | 30.055 | 7.26 | 0.0 | 0 | 0.00 | 0.00 | 0.00 | 0.00 |
| 05/07/26 1:16:22 AM | 36 | 0.0 | 0.0 | 53 | 78 | 69.3 | 57.3 | 30.056 | 7.26 | 0.0 | 0 | 0.00 | 0.00 | 0.00 | 0.00 |
| 05/07/26 1:17:35 AM | 38 | 0.0 | 0.0 | 53 | 78 | 69.3 | 57.3 | 30.055 | 7.26 | 0.0 | 0 | 0.00 | 0.00 | 0.00 | 0.00 |
| 05/07/26 1:18:21 AM | 34 | 0.0 | 0.0 | 53 | 78 | 69.3 | 57.2 | 30.056 | 7.26 | 0.0 | 0 | 0.00 | 0.00 | 0.00 | 0.00 |
| 05/07/26 1:19:34 AM | 31 | 0.0 | 0.0 | 53 | 78 | 69.2 | 57.2 | 30.055 | 7.26 | 0.0 | 0 | 0.00 | 0.00 | 0.00 | 0.00 |
| 05/07/26 1:20:29 AM | 36 | 0.0 | 0.0 | 53 | 78 | 69.2 | 57.2 | 30.055 | 7.26 | 0.0 | 0 | 0.00 | 0.00 | 0.00 | 0.00 |
| 05/07/26 1:21:20 AM | 37 | 0.0 | 0.0 | 53 | 78 | 69.3 | 57.2 | 30.054 | 7.26 | 0.0 | 0 | 0.00 | 0.00 | 0.00 | 0.00 |
| 05/07/26 1:22:33 AM | 32 | 0.0 | 0.0 | 53 | 78 | 69.3 | 57.1 | 30.055 | 7.26 | 0.0 | 0 | 0.00 | 0.00 | 0.00 | 0.00 |
| 05/07/26 1:23:19 AM | 38 | 0.0 | 0.0 | 53 | 78 | 69.2 | 57.1 | 30.055 | 7.26 | 0.0 | 0 | 0.00 | 0.00 | 0.00 | 0.00 |
| 05/07/26 1:24:32 AM | 38 | 0.0 | 0.0 | 53 | 78 | 69.3 | 57.1 | 30.056 | 7.26 | 0.0 | 0 | 0.00 | 0.00 | 0.00 | 0.00 |
| 05/07/26 1:25:27 AM | 37 | 0.0 | 0.0 | 53 | 78 | 69.2 | 57.0 | 30.055 | 7.26 | 0.0 | 0 | 0.00 | 0.00 | 0.00 | 0.00 |
| 05/07/26 1:26:19 AM | 36 | 0.0 | 0.0 | 53 | 79 | 69.3 | 57.0 | 30.054 | 7.26 | 0.0 | 0 | 0.00 | 0.00 | 0.00 | 0.00 |
| 05/07/26 1:27:35 AM | 34 | 0.0 | 0.0 | 53 | 79 | 69.3 | 57.0 | 30.053 | 7.26 | 0.0 | 0 | 0.00 | 0.00 | 0.00 | 0.00 |
| 05/07/26 1:28:26 AM | 38 | 0.0 | 0.0 | 53 | 79 | 69.2 | 56.9 | 30.053 | 7.26 | 0.0 | 0 | 0.00 | 0.00 | 0.00 | 0.00 |
| 05/07/26 1:29:33 AM | 36 | 0.0 | 0.0 | 53 | 79 | 69.2 | 56.9 | 30.054 | 7.26 | 0.0 | 0 | 0.00 | 0.00 | 0.00 | 0.00 |
| 05/07/26 1:30:28 AM | 36 | 0.0 | 0.0 | 53 | 79 | 69.2 | 56.9 | 30.054 | 7.26 | 0.0 | 0 | 0.00 | 0.00 | 0.00 | 0.00 |
| 05/07/26 1:31:17 AM | 37 | 0.0 | 0.0 | 53 | 79 | 69.3 | 56.9 | 30.051 | 7.26 | 0.0 | 0 | 0.00 | 0.00 | 0.00 | 0.00 |
| 05/07/26 1:32:30 AM | 37 | 0.0 | 0.0 | 53 | 79 | 69.2 | 56.8 | 30.052 | 7.26 | 0.0 | 0 | 0.00 | 0.00 | 0.00 | 0.00 |
| 05/07/26 1:33:22 AM | 38 | 0.0 | 0.0 | 53 | 79 | 69.2 | 56.8 | 30.054 | 7.26 | 0.0 | 0 | 0.00 | 0.00 | 0.00 | 0.00 |
| 05/07/26 1:34:31 AM | 32 | 0.0 | 0.0 | 53 | 79 | 69.3 | 56.8 | 30.052 | 7.26 | 0.0 | 0 | 0.00 | 0.00 | 0.00 | 0.00 |
| 05/07/26 1:35:23 AM | 38 | 0.0 | 0.0 | 53 | 79 | 69.2 | 56.7 | 30.054 | 7.26 | 0.0 | 0 | 0.00 | 0.00 | 0.00 | 0.00 |
| 05/07/26 1:36:33 AM | 35 | 0.0 | 0.0 | 53 | 79 | 69.2 | 56.7 | 30.054 | 7.26 | 0.0 | 0 | 0.00 | 0.00 | 0.00 | 0.00 |
| 05/07/26 1:37:25 AM | 29 | 0.0 | 0.0 | 53 | 79 | 69.2 | 56.7 | 30.054 | 7.26 | 0.0 | 0 | 0.00 | 0.00 | 0.00 | 0.00 |
| 05/07/26 1:38:17 AM | 36 | 0.0 | 0.0 | 53 | 79 | 69.2 | 56.6 | 30.054 | 7.26 | 0.0 | 0 | 0.00 | 0.00 | 0.00 | 0.00 |
| 05/07/26 1:39:24 AM | 34 | 0.0 | 0.0 | 53 | 79 | 69.2 | 56.6 | 30.052 | 7.26 | 0.0 | 0 | 0.00 | 0.00 | 0.00 | 0.00 |
| 05/07/26 1:40:15 AM | 34 | 0.0 | 0.0 | 53 | 79 | 69.2 | 56.6 | 30.053 | 7.26 | 0.0 | 0 | 0.00 | 0.00 | 0.00 | 0.00 |
| 05/07/26 1:41:28 AM | 38 | 0.0 | 0.0 | 53 | 80 | 69.2 | 56.6 | 30.053 | 7.26 | 0.0 | 0 | 0.00 | 0.00 | 0.00 | 0.00 |
| 05/07/26 1:42:20 AM | 34 | 0.0 | 0.0 | 53 | 80 | 69.2 | 56.6 | 30.054 | 7.26 | 0.0 | 0 | 0.00 | 0.00 | 0.00 | 0.00 |
| 05/07/26 1:43:30 AM | 36 | 0.0 | 0.0 | 53 | 80 | 69.2 | 56.5 | 30.052 | 7.26 | 0.0 | 0 | 0.00 | 0.00 | 0.00 | 0.00 |
| 05/07/26 1:44:25 AM | 32 | 0.0 | 0.0 | 53 | 80 | 69.2 | 56.5 | 30.052 | 7.26 | 0.0 | 0 | 0.00 | 0.00 | 0.00 | 0.00 |
| 05/07/26 1:45:32 AM | 36 | 0.0 | 0.0 | 53 | 80 | 69.2 | 56.5 | 30.054 | 7.26 | 0.0 | 0 | 0.00 | 0.00 | 0.00 | 0.00 |
| 05/07/26 1:46:23 AM | 34 | 0.0 | 0.0 | 53 | 80 | 69.1 | 56.5 | 30.053 | 7.26 | 0.0 | 0 | 0.00 | 0.00 | 0.00 | 0.00 |
| 05/07/26 1:47:36 AM | 34 | 0.0 | 0.0 | 53 | 80 | 69.2 | 56.5 | 30.053 | 7.26 | 0.0 | 0 | 0.00 | 0.00 | 0.00 | 0.00 |
| 05/07/26 1:48:25 AM | 38 | 0.0 | 0.0 | 53 | 80 | 69.1 | 56.4 | 30.052 | 7.26 | 0.0 | 0 | 0.00 | 0.00 | 0.00 | 0.00 |
| 05/07/26 1:49:17 AM | 37 | 0.0 | 0.0 | 53 | 80 | 69.1 | 56.4 | 30.051 | 7.26 | 0.0 | 0 | 0.00 | 0.00 | 0.00 | 0.00 |
| 05/07/26 1:50:27 AM | 37 | 0.0 | 0.0 | 53 | 80 | 69.1 | 56.4 | 30.053 | 7.26 | 0.0 | 0 | 0.00 | 0.00 | 0.00 | 0.00 |
| 05/07/26 1:51:19 AM | 34 | 0.0 | 0.0 | 53 | 80 | 69.2 | 56.4 | 30.050 | 7.26 | 0.0 | 0 | 0.00 | 0.00 | 0.00 | 0.00 |
| 05/07/26 1:52:28 AM | 32 | 0.0 | 0.0 | 53 | 80 | 69.2 | 56.4 | 30.052 | 7.26 | 0.0 | 0 | 0.00 | 0.00 | 0.00 | 0.00 |
| 05/07/26 1:53:23 AM | 38 | 0.0 | 0.0 | 53 | 80 | 69.2 | 56.4 | 30.051 | 7.26 | 0.0 | 0 | 0.00 | 0.00 | 0.00 | 0.00 |
| 05/07/26 1:54:33 AM | 38 | 0.0 | 0.0 | 53 | 80 | 69.2 | 56.3 | 30.053 | 7.26 | 0.0 | 0 | 0.00 | 0.00 | 0.00 | 0.00 |
| 05/07/26 1:55:22 AM | 30 | 0.0 | 0.0 | 53 | 80 | 69.2 | 56.3 | 30.052 | 7.26 | 0.0 | 0 | 0.00 | 0.00 | 0.00 | 0.00 |
| 05/07/26 1:56:32 AM | 30 | 0.0 | 0.0 | 53 | 80 | 69.1 | 56.2 | 30.050 | 7.26 | 0.0 | 0 | 0.00 | 0.00 | 0.00 | 0.00 |
| 05/07/26 1:57:27 AM | 37 | 0.0 | 0.0 | 53 | 80 | 69.1 | 56.2 | 30.051 | 7.26 | 0.0 | 0 | 0.00 | 0.00 | 0.00 | 0.00 |
| 05/07/26 1:58:18 AM | 38 | 0.0 | 0.0 | 53 | 80 | 69.1 | 56.2 | 30.049 | 7.26 | 0.0 | 0 | 0.00 | 0.00 | 0.00 | 0.00 |
| 05/07/26 1:59:31 AM | 34 | 0.0 | 0.0 | 53 | 80 | 69.2 | 56.2 | 30.050 | 7.26 | 0.0 | 0 | 0.00 | 0.00 | 0.00 | 0.00 |
| 05/07/26 2:00:47 AM | 36 | 0.0 | 0.0 | 53 | 80 | 69.1 | 56.1 | 30.051 | 7.26 | 0.0 | 0 | 0.00 | 0.00 | 0.00 | 0.00 |
| 05/07/26 2:01:33 AM | 38 | 0.0 | 0.0 | 53 | 80 | 69.1 | 56.2 | 30.049 | 7.26 | 0.0 | 0 | 0.00 | 0.00 | 0.00 | 0.00 |
| 05/07/26 2:02:25 AM | 38 | 0.0 | 0.0 | 53 | 80 | 69.1 | 56.2 | 30.046 | 7.26 | 0.0 | 0 | 0.00 | 0.00 | 0.00 | 0.00 |
| 05/07/26 2:03:17 AM | 35 | 0.0 | 0.0 | 53 | 81 | 69.1 | 56.1 | 30.048 | 7.26 | 0.0 | 0 | 0.00 | 0.00 | 0.00 | 0.00 |
| 05/07/26 2:04:29 AM | 37 | 0.0 | 0.0 | 53 | 81 | 69.1 | 56.1 | 30.044 | 7.26 | 0.0 | 0 | 0.00 | 0.00 | 0.00 | 0.00 |
| 05/07/26 2:05:21 AM | 38 | 0.0 | 0.0 | 53 | 81 | 69.1 | 56.1 | 30.047 | 7.26 | 0.0 | 0 | 0.00 | 0.00 | 0.00 | 0.00 |
| 05/07/26 2:06:28 AM | 38 | 0.0 | 0.0 | 53 | 81 | 69.1 | 56.2 | 30.047 | 7.26 | 0.0 | 0 | 0.00 | 0.00 | 0.00 | 0.00 |
| 05/07/26 2:07:20 AM | 38 | 0.0 | 0.0 | 53 | 81 | 69.1 | 56.1 | 30.047 | 7.26 | 0.0 | 0 | 0.00 | 0.00 | 0.00 | 0.00 |
| 05/07/26 2:08:33 AM | 37 | 0.0 | 0.0 | 53 | 81 | 69.1 | 56.1 | 30.045 | 7.26 | 0.0 | 0 | 0.00 | 0.00 | 0.00 | 0.00 |
| 05/07/26 2:09:25 AM | 32 | 0.0 | 0.0 | 53 | 81 | 69.1 | 56.1 | 30.044 | 7.26 | 0.0 | 0 | 0.00 | 0.00 | 0.00 | 0.00 |
| 05/07/26 2:10:19 AM | 34 | 0.0 | 0.0 | 53 | 81 | 69.1 | 56.1 | 30.046 | 7.26 | 0.0 | 0 | 0.00 | 0.00 | 0.00 | 0.00 |
| 05/07/26 2:11:29 AM | 38 | 0.0 | 0.0 | 53 | 81 | 69.0 | 56.1 | 30.044 | 7.26 | 0.0 | 0 | 0.00 | 0.00 | 0.00 | 0.00 |
| 05/07/26 2:12:18 AM | 36 | 0.0 | 0.0 | 53 | 81 | 69.1 | 56.1 | 30.044 | 7.26 | 0.0 | 0 | 0.00 | 0.00 | 0.00 | 0.00 |
| 05/07/26 2:13:28 AM | 37 | 0.0 | 0.0 | 53 | 81 | 69.1 | 56.1 | 30.044 | 7.26 | 0.0 | 0 | 0.00 | 0.00 | 0.00 | 0.00 |
| 05/07/26 2:14:20 AM | 38 | 0.0 | 0.0 | 53 | 81 | 69.0 | 56.1 | 30.042 | 7.26 | 0.0 | 0 | 0.00 | 0.00 | 0.00 | 0.00 |
| 05/07/26 2:15:33 AM | 38 | 0.0 | 0.0 | 53 | 81 | 69.0 | 56.1 | 30.043 | 7.26 | 0.0 | 0 | 0.00 | 0.00 | 0.00 | 0.00 |
| 05/07/26 2:16:24 AM | 34 | 0.0 | 0.0 | 53 | 81 | 69.1 | 56.1 | 30.042 | 7.26 | 0.0 | 0 | 0.00 | 0.00 | 0.00 | 0.00 |
| 05/07/26 2:17:31 AM | 36 | 0.0 | 0.0 | 53 | 81 | 69.1 | 56.1 | 30.043 | 7.26 | 0.0 | 0 | 0.00 | 0.00 | 0.00 | 0.00 |
| 05/07/26 2:18:26 AM | 38 | 0.0 | 0.0 | 53 | 81 | 69.0 | 56.1 | 30.044 | 7.26 | 0.0 | 0 | 0.00 | 0.00 | 0.00 | 0.00 |
| 05/07/26 2:19:18 AM | 31 | 0.0 | 0.0 | 53 | 81 | 69.0 | 56.1 | 30.044 | 7.26 | 0.0 | 0 | 0.00 | 0.00 | 0.00 | 0.00 |
| 05/07/26 2:20:28 AM | 36 | 0.0 | 0.0 | 53 | 81 | 69.0 | 56.1 | 30.042 | 7.26 | 0.0 | 0 | 0.00 | 0.00 | 0.00 | 0.00 |
| 05/07/26 2:21:20 AM | 38 | 0.0 | 0.0 | 53 | 81 | 69.1 | 56.0 | 30.044 | 7.26 | 0.0 | 0 | 0.00 | 0.00 | 0.00 | 0.00 |
| 05/07/26 2:22:30 AM | 34 | 0.0 | 0.0 | 53 | 81 | 69.0 | 56.0 | 30.045 | 7.26 | 0.0 | 0 | 0.00 | 0.00 | 0.00 | 0.00 |
| 05/07/26 2:23:21 AM | 38 | 0.0 | 0.0 | 53 | 81 | 69.0 | 56.0 | 30.044 | 7.26 | 0.0 | 0 | 0.00 | 0.00 | 0.00 | 0.00 |
| 05/07/26 2:24:31 AM | 38 | 0.0 | 0.0 | 53 | 81 | 69.1 | 56.0 | 30.042 | 7.26 | 0.0 | 0 | 0.00 | 0.00 | 0.00 | 0.00 |
| 05/07/26 2:25:26 AM | 37 | 0.0 | 0.0 | 53 | 81 | 69.0 | 56.0 | 30.041 | 7.26 | 0.0 | 0 | 0.00 | 0.00 | 0.00 | 0.00 |
| 05/07/26 2:26:18 AM | 38 | 0.0 | 0.0 | 53 | 81 | 69.0 | 55.9 | 30.040 | 7.26 | 0.0 | 0 | 0.00 | 0.00 | 0.00 | 0.00 |
| 05/07/26 2:27:28 AM | 38 | 0.0 | 0.0 | 53 | 81 | 69.0 | 55.8 | 30.041 | 7.26 | 0.0 | 0 | 0.00 | 0.00 | 0.00 | 0.00 |
| 05/07/26 2:28:17 AM | 37 | 0.0 | 0.0 | 53 | 81 | 69.0 | 55.8 | 30.038 | 7.26 | 0.0 | 0 | 0.00 | 0.00 | 0.00 | 0.00 |
| 05/07/26 2:29:29 AM | 36 | 0.0 | 0.0 | 53 | 81 | 69.0 | 55.8 | 30.039 | 7.26 | 0.0 | 0 | 0.00 | 0.00 | 0.00 | 0.00 |
| 05/07/26 2:30:21 AM | 36 | 0.0 | 0.0 | 53 | 81 | 69.0 | 55.8 | 30.039 | 7.26 | 0.0 | 0 | 0.00 | 0.00 | 0.00 | 0.00 |
| 05/07/26 2:31:34 AM | 31 | 0.0 | 0.0 | 53 | 81 | 69.0 | 55.7 | 30.040 | 7.26 | 0.0 | 0 | 0.00 | 0.00 | 0.00 | 0.00 |
| 05/07/26 2:32:26 AM | 36 | 0.0 | 0.0 | 53 | 81 | 69.0 | 55.7 | 30.038 | 7.26 | 0.0 | 0 | 0.00 | 0.00 | 0.00 | 0.00 |
| 05/07/26 2:33:39 AM | 30 | 0.0 | 0.0 | 53 | 81 | 69.0 | 55.7 | 30.039 | 7.26 | 0.0 | 0 | 0.00 | 0.00 | 0.00 | 0.00 |
| 05/07/26 2:34:31 AM | 37 | 0.0 | 0.0 | 53 | 81 | 68.9 | 55.7 | 30.038 | 7.26 | 0.0 | 0 | 0.00 | 0.00 | 0.00 | 0.00 |
| 05/07/26 2:35:23 AM | 36 | 0.0 | 0.0 | 53 | 81 | 68.9 | 55.7 | 30.038 | 7.26 | 0.0 | 0 | 0.00 | 0.00 | 0.00 | 0.00 |
| 05/07/26 2:36:36 AM | 34 | 0.0 | 0.0 | 53 | 82 | 68.9 | 55.6 | 30.034 | 7.26 | 0.0 | 0 | 0.00 | 0.00 | 0.00 | 0.00 |
| 05/07/26 2:37:25 AM | 38 | 0.0 | 0.0 | 53 | 82 | 68.9 | 55.6 | 30.037 | 7.26 | 0.0 | 0 | 0.00 | 0.00 | 0.00 | 0.00 |
| 05/07/26 2:38:19 AM | 37 | 0.0 | 0.0 | 53 | 82 | 68.9 | 55.6 | 30.038 | 7.26 | 0.0 | 0 | 0.00 | 0.00 | 0.00 | 0.00 |
| 05/07/26 2:39:26 AM | 38 | 0.0 | 0.0 | 53 | 82 | 68.9 | 55.6 | 30.036 | 7.26 | 0.0 | 0 | 0.00 | 0.00 | 0.00 | 0.00 |
| 05/07/26 2:40:18 AM | 38 | 0.0 | 0.0 | 53 | 82 | 69.0 | 55.6 | 30.034 | 7.26 | 0.0 | 0 | 0.00 | 0.00 | 0.00 | 0.00 |
| 05/07/26 2:41:31 AM | 36 | 0.0 | 0.0 | 53 | 82 | 68.9 | 55.5 | 30.034 | 7.26 | 0.0 | 0 | 0.00 | 0.00 | 0.00 | 0.00 |
| 05/07/26 2:42:23 AM | 38 | 0.0 | 0.0 | 53 | 82 | 68.9 | 55.5 | 30.036 | 7.26 | 0.0 | 0 | 0.00 | 0.00 | 0.00 | 0.00 |
| 05/07/26 2:43:36 AM | 38 | 0.0 | 0.0 | 53 | 82 | 68.9 | 55.5 | 30.034 | 7.26 | 0.0 | 0 | 0.00 | 0.00 | 0.00 | 0.00 |
| 05/07/26 2:44:22 AM | 36 | 0.0 | 0.0 | 53 | 82 | 68.9 | 55.5 | 30.034 | 7.26 | 0.0 | 0 | 0.00 | 0.00 | 0.00 | 0.00 |
| 05/07/26 2:45:34 AM | 30 | 0.0 | 0.0 | 53 | 82 | 68.9 | 55.5 | 30.037 | 7.26 | 0.0 | 0 | 0.00 | 0.00 | 0.00 | 0.00 |
| 05/07/26 2:46:26 AM | 37 | 0.0 | 0.0 | 53 | 82 | 68.9 | 55.4 | 30.035 | 7.26 | 0.0 | 0 | 0.00 | 0.00 | 0.00 | 0.00 |
| 05/07/26 2:47:18 AM | 38 | 0.0 | 0.0 | 53 | 82 | 68.9 | 55.4 | 30.037 | 7.26 | 0.0 | 0 | 0.00 | 0.00 | 0.00 | 0.00 |
| 05/07/26 2:48:31 AM | 38 | 0.0 | 0.0 | 53 | 82 | 68.9 | 55.4 | 30.037 | 7.26 | 0.0 | 0 | 0.00 | 0.00 | 0.00 | 0.00 |
| 05/07/26 2:49:17 AM | 34 | 0.0 | 0.0 | 53 | 82 | 68.9 | 55.4 | 30.037 | 7.26 | 0.0 | 0 | 0.00 | 0.00 | 0.00 | 0.00 |
| 05/07/26 2:50:30 AM | 36 | 0.0 | 0.0 | 53 | 82 | 68.9 | 55.4 | 30.035 | 7.26 | 0.0 | 0 | 0.00 | 0.00 | 0.00 | 0.00 |
| 05/07/26 2:51:22 AM | 38 | 0.0 | 0.0 | 53 | 82 | 68.9 | 55.3 | 30.033 | 7.26 | 0.0 | 0 | 0.00 | 0.00 | 0.00 | 0.00 |
| 05/07/26 2:52:35 AM | 38 | 0.0 | 0.0 | 53 | 82 | 68.9 | 55.3 | 30.036 | 7.26 | 0.0 | 0 | 0.00 | 0.00 | 0.00 | 0.00 |
| 05/07/26 2:53:26 AM | 36 | 0.0 | 0.0 | 53 | 82 | 68.9 | 55.3 | 30.035 | 7.26 | 0.0 | 0 | 0.00 | 0.00 | 0.00 | 0.00 |
| 05/07/26 2:54:18 AM | 40 | 0.0 | 0.0 | 53 | 82 | 68.9 | 55.3 | 30.032 | 7.26 | 0.0 | 0 | 0.00 | 0.00 | 0.00 | 0.00 |
| 05/07/26 2:55:25 AM | 38 | 0.0 | 0.0 | 53 | 82 | 68.9 | 55.2 | 30.034 | 7.26 | 0.0 | 0 | 0.00 | 0.00 | 0.00 | 0.00 |
| 05/07/26 2:56:20 AM | 38 | 0.0 | 0.0 | 53 | 82 | 68.9 | 55.2 | 30.033 | 7.26 | 0.0 | 0 | 0.00 | 0.00 | 0.00 | 0.00 |
| 05/07/26 2:57:33 AM | 30 | 0.0 | 0.0 | 53 | 82 | 68.9 | 55.1 | 30.034 | 7.26 | 0.0 | 0 | 0.00 | 0.00 | 0.00 | 0.00 |
| 05/07/26 2:58:25 AM | 35 | 0.0 | 0.0 | 53 | 82 | 68.9 | 55.1 | 30.036 | 7.26 | 0.0 | 0 | 0.00 | 0.00 | 0.00 | 0.00 |
| 05/07/26 2:59:35 AM | 37 | 0.0 | 0.0 | 53 | 82 | 68.9 | 55.1 | 30.034 | 7.26 | 0.0 | 0 | 0.00 | 0.00 | 0.00 | 0.00 |
| 05/07/26 3:00:45 AM | 37 | 0.0 | 0.0 | 53 | 82 | 68.8 | 55.1 | 30.033 | 7.26 | 0.0 | 0 | 0.00 | 0.00 | 0.00 | 0.00 |
| 05/07/26 3:01:19 AM | 36 | 0.0 | 0.0 | 53 | 82 | 68.8 | 55.1 | 30.033 | 7.26 | 0.0 | 0 | 0.00 | 0.00 | 0.00 | 0.00 |
| 05/07/26 3:02:28 AM | 36 | 0.0 | 0.0 | 53 | 82 | 68.8 | 55.1 | 30.035 | 7.26 | 0.0 | 0 | 0.00 | 0.00 | 0.00 | 0.00 |
| 05/07/26 3:03:23 AM | 38 | 0.0 | 0.0 | 53 | 82 | 68.9 | 55.0 | 30.035 | 7.26 | 0.0 | 0 | 0.00 | 0.00 | 0.00 | 0.00 |
| 05/07/26 3:04:36 AM | 38 | 0.0 | 0.0 | 53 | 82 | 68.8 | 55.1 | 30.034 | 7.26 | 0.0 | 0 | 0.00 | 0.00 | 0.00 | 0.00 |
| 05/07/26 3:05:28 AM | 35 | 0.0 | 0.0 | 53 | 82 | 68.8 | 55.0 | 30.034 | 7.26 | 0.0 | 0 | 0.00 | 0.00 | 0.00 | 0.00 |
| 05/07/26 3:06:35 AM | 38 | 0.0 | 0.0 | 53 | 83 | 68.8 | 55.0 | 30.037 | 7.26 | 0.0 | 0 | 0.00 | 0.00 | 0.00 | 0.00 |
| 05/07/26 3:07:27 AM | 34 | 0.0 | 0.0 | 53 | 83 | 68.8 | 55.0 | 30.034 | 7.26 | 0.0 | 0 | 0.00 | 0.00 | 0.00 | 0.00 |
| 05/07/26 3:08:19 AM | 36 | 0.0 | 0.0 | 53 | 83 | 68.8 | 55.0 | 30.032 | 7.26 | 0.0 | 0 | 0.00 | 0.00 | 0.00 | 0.00 |
| 05/07/26 3:09:32 AM | 38 | 0.0 | 0.0 | 53 | 83 | 68.8 | 55.0 | 30.033 | 7.26 | 0.0 | 0 | 0.00 | 0.00 | 0.00 | 0.00 |
| 05/07/26 3:10:24 AM | 37 | 0.0 | 0.0 | 53 | 83 | 68.8 | 55.0 | 30.034 | 7.26 | 0.0 | 0 | 0.00 | 0.00 | 0.00 | 0.00 |
| 05/07/26 3:11:30 AM | 36 | 0.0 | 0.0 | 53 | 83 | 68.8 | 55.0 | 30.034 | 7.26 | 0.0 | 0 | 0.00 | 0.00 | 0.00 | 0.00 |
| 05/07/26 3:12:22 AM | 37 | 0.0 | 0.0 | 53 | 83 | 68.8 | 55.0 | 30.034 | 7.26 | 0.0 | 0 | 0.00 | 0.00 | 0.00 | 0.00 |
| 05/07/26 3:13:32 AM | 37 | 0.0 | 0.0 | 53 | 83 | 68.8 | 55.0 | 30.035 | 7.26 | 0.0 | 0 | 0.00 | 0.00 | 0.00 | 0.00 |
| 05/07/26 3:14:27 AM | 36 | 0.0 | 0.0 | 53 | 83 | 68.8 | 55.0 | 30.032 | 7.26 | 0.0 | 0 | 0.00 | 0.00 | 0.00 | 0.00 |
| 05/07/26 3:15:19 AM | 38 | 0.0 | 0.0 | 53 | 83 | 68.8 | 55.0 | 30.033 | 7.26 | 0.0 | 0 | 0.00 | 0.00 | 0.00 | 0.00 |
| 05/07/26 3:16:26 AM | 38 | 0.0 | 0.0 | 53 | 83 | 68.8 | 55.0 | 30.033 | 7.26 | 0.0 | 0 | 0.00 | 0.00 | 0.00 | 0.00 |
| 05/07/26 3:17:21 AM | 35 | 0.0 | 0.0 | 53 | 83 | 68.8 | 55.0 | 30.033 | 7.26 | 0.0 | 0 | 0.00 | 0.00 | 0.00 | 0.00 |
| 05/07/26 3:18:31 AM | 38 | 0.0 | 0.0 | 53 | 83 | 68.8 | 55.0 | 30.031 | 7.26 | 0.0 | 0 | 0.00 | 0.00 | 0.00 | 0.00 |
| 05/07/26 3:19:26 AM | 32 | 0.0 | 0.0 | 53 | 83 | 68.8 | 55.0 | 30.032 | 7.26 | 0.0 | 0 | 0.00 | 0.00 | 0.00 | 0.00 |
| 05/07/26 3:20:18 AM | 35 | 0.0 | 0.0 | 53 | 83 | 68.8 | 55.0 | 30.032 | 7.26 | 0.0 | 0 | 0.00 | 0.00 | 0.00 | 0.00 |
| 05/07/26 3:21:31 AM | 38 | 0.0 | 0.0 | 53 | 83 | 68.8 | 55.0 | 30.033 | 7.26 | 0.0 | 0 | 0.00 | 0.00 | 0.00 | 0.00 |
| 05/07/26 3:22:19 AM | 36 | 0.0 | 0.0 | 53 | 83 | 68.8 | 55.0 | 30.033 | 7.26 | 0.0 | 0 | 0.00 | 0.00 | 0.00 | 0.00 |
| 05/07/26 3:23:29 AM | 37 | 0.0 | 0.0 | 53 | 83 | 68.8 | 54.9 | 30.031 | 7.26 | 0.0 | 0 | 0.00 | 0.00 | 0.00 | 0.00 |
| 05/07/26 3:24:21 AM | 35 | 0.0 | 0.0 | 53 | 83 | 68.8 | 55.0 | 30.031 | 7.26 | 0.0 | 0 | 0.00 | 0.00 | 0.00 | 0.00 |
| 05/07/26 3:25:34 AM | 38 | 0.0 | 0.0 | 53 | 83 | 68.8 | 54.9 | 30.031 | 7.26 | 0.0 | 0 | 0.00 | 0.00 | 0.00 | 0.00 |
| 05/07/26 3:26:26 AM | 35 | 0.0 | 0.0 | 53 | 83 | 68.8 | 54.9 | 30.033 | 7.26 | 0.0 | 0 | 0.00 | 0.00 | 0.00 | 0.00 |
| 05/07/26 3:27:33 AM | 36 | 0.0 | 0.0 | 53 | 83 | 68.8 | 54.9 | 30.032 | 7.26 | 0.0 | 0 | 0.00 | 0.00 | 0.00 | 0.00 |
| 05/07/26 3:28:25 AM | 34 | 0.0 | 0.0 | 53 | 83 | 68.8 | 54.9 | 30.033 | 7.26 | 0.0 | 0 | 0.00 | 0.00 | 0.00 | 0.00 |
| 05/07/26 3:29:17 AM | 36 | 0.0 | 0.0 | 53 | 83 | 68.8 | 54.8 | 30.031 | 7.26 | 0.0 | 0 | 0.00 | 0.00 | 0.00 | 0.00 |
| 05/07/26 3:30:33 AM | 38 | 0.0 | 0.0 | 53 | 83 | 68.8 | 54.8 | 30.031 | 7.26 | 0.0 | 0 | 0.00 | 0.00 | 0.00 | 0.00 |
| 05/07/26 3:31:22 AM | 32 | 0.0 | 0.0 | 53 | 83 | 68.8 | 54.8 | 30.032 | 7.26 | 0.0 | 0 | 0.00 | 0.00 | 0.00 | 0.00 |
| 05/07/26 3:32:29 AM | 37 | 0.0 | 0.0 | 53 | 83 | 68.7 | 54.8 | 30.032 | 7.26 | 0.0 | 0 | 0.00 | 0.00 | 0.00 | 0.00 |
| 05/07/26 3:33:21 AM | 36 | 0.0 | 0.0 | 53 | 83 | 68.7 | 54.7 | 30.033 | 7.26 | 0.0 | 0 | 0.00 | 0.00 | 0.00 | 0.00 |
| 05/07/26 3:34:33 AM | 32 | 0.0 | 0.0 | 53 | 83 | 68.7 | 54.7 | 30.031 | 7.26 | 0.0 | 0 | 0.00 | 0.00 | 0.00 | 0.00 |
| 05/07/26 3:35:25 AM | 36 | 0.0 | 0.0 | 53 | 83 | 68.7 | 54.7 | 30.032 | 7.26 | 0.0 | 0 | 0.00 | 0.00 | 0.00 | 0.00 |
| 05/07/26 3:36:17 AM | 35 | 0.0 | 0.0 | 53 | 83 | 68.7 | 54.7 | 30.032 | 7.26 | 0.0 | 0 | 0.00 | 0.00 | 0.00 | 0.00 |
| 05/07/26 3:37:30 AM | 38 | 0.0 | 0.0 | 53 | 83 | 68.7 | 54.6 | 30.031 | 7.26 | 0.0 | 0 | 0.00 | 0.00 | 0.00 | 0.00 |
| 05/07/26 3:38:16 AM | 36 | 0.0 | 0.0 | 53 | 83 | 68.7 | 54.6 | 30.029 | 7.26 | 0.0 | 0 | 0.00 | 0.00 | 0.00 | 0.00 |
| 05/07/26 3:39:29 AM | 35 | 0.0 | 0.0 | 53 | 84 | 68.7 | 54.6 | 30.031 | 7.26 | 0.0 | 0 | 0.00 | 0.00 | 0.00 | 0.00 |
| 05/07/26 3:40:21 AM | 32 | 0.0 | 0.0 | 53 | 84 | 68.7 | 54.6 | 30.031 | 7.26 | 0.0 | 0 | 0.00 | 0.00 | 0.00 | 0.00 |
| 05/07/26 3:41:34 AM | 32 | 0.0 | 0.0 | 53 | 84 | 68.6 | 54.6 | 30.031 | 7.26 | 0.0 | 0 | 0.00 | 0.00 | 0.00 | 0.00 |
| 05/07/26 3:42:26 AM | 38 | 0.0 | 0.0 | 53 | 84 | 68.6 | 54.6 | 30.031 | 7.26 | 0.0 | 0 | 0.00 | 0.00 | 0.00 | 0.00 |
| 05/07/26 3:43:36 AM | 34 | 0.0 | 0.0 | 53 | 84 | 68.7 | 54.6 | 30.028 | 7.26 | 0.0 | 0 | 0.00 | 0.00 | 0.00 | 0.00 |
| 05/07/26 3:44:27 AM | 38 | 0.0 | 0.0 | 53 | 84 | 68.7 | 54.6 | 30.027 | 7.26 | 0.0 | 0 | 0.00 | 0.00 | 0.00 | 0.00 |
| 05/07/26 3:45:19 AM | 31 | 0.0 | 0.0 | 53 | 84 | 68.6 | 54.7 | 30.028 | 7.26 | 0.0 | 0 | 0.00 | 0.00 | 0.00 | 0.00 |
| 05/07/26 3:46:29 AM | 38 | 0.0 | 0.0 | 53 | 84 | 68.6 | 54.6 | 30.026 | 7.26 | 0.0 | 0 | 0.00 | 0.00 | 0.00 | 0.00 |
| 05/07/26 3:47:21 AM | 38 | 0.0 | 0.0 | 53 | 84 | 68.7 | 54.6 | 30.028 | 7.26 | 0.0 | 0 | 0.00 | 0.00 | 0.00 | 0.00 |
| 05/07/26 3:48:31 AM | 35 | 0.0 | 0.0 | 53 | 84 | 68.6 | 54.6 | 30.027 | 7.26 | 0.0 | 0 | 0.00 | 0.00 | 0.00 | 0.00 |
| 05/07/26 3:49:20 AM | 34 | 0.0 | 0.0 | 53 | 84 | 68.6 | 54.6 | 30.025 | 7.26 | 0.0 | 0 | 0.00 | 0.00 | 0.00 | 0.00 |
| 05/07/26 3:50:33 AM | 32 | 0.0 | 0.0 | 53 | 84 | 68.6 | 54.6 | 30.027 | 7.26 | 0.0 | 0 | 0.00 | 0.00 | 0.00 | 0.00 |
| 05/07/26 3:51:25 AM | 35 | 0.0 | 0.0 | 53 | 84 | 68.6 | 54.6 | 30.026 | 7.26 | 0.0 | 0 | 0.00 | 0.00 | 0.00 | 0.00 |
| 05/07/26 3:52:17 AM | 34 | 0.0 | 0.0 | 53 | 84 | 68.6 | 54.6 | 30.025 | 7.26 | 0.0 | 0 | 0.00 | 0.00 | 0.00 | 0.00 |
| 05/07/26 3:53:30 AM | 32 | 0.0 | 0.0 | 53 | 84 | 68.6 | 54.6 | 30.026 | 7.26 | 0.0 | 0 | 0.00 | 0.00 | 0.00 | 0.00 |
| 05/07/26 3:54:19 AM | 36 | 0.0 | 0.0 | 53 | 84 | 68.6 | 54.5 | 30.026 | 7.26 | 0.0 | 0 | 0.00 | 0.00 | 0.00 | 0.00 |
| 05/07/26 3:55:32 AM | 32 | 0.0 | 0.0 | 53 | 84 | 68.6 | 54.5 | 30.023 | 7.26 | 0.0 | 0 | 0.00 | 0.00 | 0.00 | 0.00 |
| 05/07/26 3:56:23 AM | 38 | 0.0 | 0.0 | 53 | 84 | 68.6 | 54.5 | 30.025 | 7.26 | 0.0 | 0 | 0.00 | 0.00 | 0.00 | 0.00 |
| 05/07/26 3:57:36 AM | 38 | 0.0 | 0.0 | 53 | 84 | 68.6 | 54.5 | 30.023 | 7.26 | 0.0 | 0 | 0.00 | 0.00 | 0.00 | 0.00 |
| 05/07/26 3:58:28 AM | 38 | 0.0 | 0.0 | 53 | 84 | 68.6 | 54.5 | 30.024 | 7.26 | 0.0 | 0 | 0.00 | 0.00 | 0.00 | 0.00 |
| 05/07/26 3:59:35 AM | 38 | 0.0 | 0.0 | 53 | 84 | 68.6 | 54.5 | 30.021 | 7.26 | 0.0 | 0 | 0.00 | 0.00 | 0.00 | 0.00 |
| 05/07/26 4:00:30 AM | 36 | 0.0 | 0.0 | 53 | 84 | 68.7 | 54.5 | 30.023 | 7.26 | 0.0 | 0 | 0.00 | 0.00 | 0.00 | 0.00 |
| 05/07/26 4:01:19 AM | 38 | 0.0 | 0.0 | 53 | 84 | 68.7 | 54.4 | 30.023 | 7.26 | 0.0 | 0 | 0.00 | 0.00 | 0.00 | 0.00 |
| 05/07/26 4:02:32 AM | 35 | 0.0 | 0.0 | 53 | 84 | 68.7 | 54.4 | 30.023 | 7.26 | 0.0 | 0 | 0.00 | 0.00 | 0.00 | 0.00 |
| 05/07/26 4:03:24 AM | 36 | 0.0 | 0.0 | 53 | 84 | 68.6 | 54.4 | 30.021 | 7.26 | 0.0 | 0 | 0.00 | 0.00 | 0.00 | 0.00 |
| 05/07/26 4:04:16 AM | 34 | 0.0 | 0.0 | 53 | 83 | 68.6 | 54.4 | 30.026 | 7.26 | 0.0 | 0 | 0.00 | 0.00 | 0.00 | 0.00 |
| 05/07/26 4:05:26 AM | 38 | 0.0 | 0.0 | 53 | 83 | 68.6 | 54.3 | 30.025 | 7.26 | 0.0 | 0 | 0.00 | 0.00 | 0.00 | 0.00 |
| 05/07/26 4:06:36 AM | 39 | 0.0 | 0.0 | 53 | 83 | 68.6 | 54.3 | 30.021 | 7.26 | 0.0 | 0 | 0.00 | 0.00 | 0.00 | 0.00 |
| 05/07/26 4:07:28 AM | 35 | 0.0 | 0.0 | 53 | 84 | 68.7 | 54.3 | 30.022 | 7.26 | 0.0 | 0 | 0.00 | 0.00 | 0.00 | 0.00 |
| 05/07/26 4:08:20 AM | 38 | 0.0 | 0.0 | 53 | 84 | 68.6 | 54.3 | 30.024 | 7.26 | 0.0 | 0 | 0.00 | 0.00 | 0.00 | 0.00 |
| 05/07/26 4:09:33 AM | 31 | 0.0 | 0.0 | 53 | 84 | 68.6 | 54.2 | 30.020 | 7.26 | 0.0 | 0 | 0.00 | 0.00 | 0.00 | 0.00 |
| 05/07/26 4:10:21 AM | 38 | 0.0 | 0.0 | 53 | 84 | 68.7 | 54.2 | 30.021 | 7.26 | 0.0 | 0 | 0.00 | 0.00 | 0.00 | 0.00 |
| 05/07/26 4:11:34 AM | 36 | 0.0 | 0.0 | 53 | 84 | 68.7 | 54.1 | 30.019 | 7.26 | 0.0 | 0 | 0.00 | 0.00 | 0.00 | 0.00 |
| 05/07/26 4:12:26 AM | 36 | 0.0 | 0.0 | 53 | 84 | 68.7 | 54.1 | 30.021 | 7.26 | 0.0 | 0 | 0.00 | 0.00 | 0.00 | 0.00 |
| 05/07/26 4:13:18 AM | 38 | 0.0 | 0.0 | 53 | 84 | 68.7 | 54.1 | 30.020 | 7.26 | 0.0 | 0 | 0.00 | 0.00 | 0.00 | 0.00 |
| 05/07/26 4:14:31 AM | 35 | 0.0 | 0.0 | 53 | 84 | 68.7 | 54.0 | 30.019 | 7.26 | 0.0 | 0 | 0.00 | 0.00 | 0.00 | 0.00 |
| 05/07/26 4:15:41 AM | 35 | 0.0 | 0.0 | 53 | 84 | 68.7 | 54.0 | 30.019 | 7.26 | 0.0 | 0 | 0.00 | 0.00 | 0.00 | 0.00 |
| 05/07/26 4:16:33 AM | 36 | 0.0 | 0.0 | 53 | 84 | 68.7 | 54.0 | 30.019 | 7.26 | 0.0 | 0 | 0.00 | 0.00 | 0.00 | 0.00 |
| 05/07/26 4:17:25 AM | 38 | 0.0 | 0.0 | 53 | 84 | 68.7 | 54.0 | 30.022 | 7.26 | 0.0 | 0 | 0.00 | 0.00 | 0.00 | 0.00 |
| 05/07/26 4:18:17 AM | 38 | 0.0 | 0.0 | 53 | 84 | 68.7 | 53.9 | 30.021 | 7.26 | 0.0 | 0 | 0.00 | 0.00 | 0.00 | 0.00 |
| 05/07/26 4:19:30 AM | 36 | 0.0 | 0.0 | 53 | 84 | 68.6 | 53.9 | 30.019 | 7.26 | 0.0 | 0 | 0.00 | 0.00 | 0.00 | 0.00 |
| 05/07/26 4:20:21 AM | 39 | 0.0 | 0.0 | 53 | 84 | 68.7 | 53.9 | 30.020 | 7.26 | 0.0 | 0 | 0.00 | 0.00 | 0.00 | 0.00 |
| 05/07/26 4:21:28 AM | 32 | 0.0 | 0.0 | 53 | 84 | 68.6 | 53.9 | 30.019 | 7.26 | 0.0 | 0 | 0.00 | 0.00 | 0.00 | 0.00 |
| 05/07/26 4:22:23 AM | 31 | 0.0 | 0.0 | 53 | 84 | 68.7 | 53.8 | 30.020 | 7.26 | 0.0 | 0 | 0.00 | 0.00 | 0.00 | 0.00 |
| 05/07/26 4:23:33 AM | 32 | 0.0 | 0.0 | 53 | 84 | 68.7 | 53.8 | 30.018 | 7.26 | 0.0 | 0 | 0.00 | 0.00 | 0.00 | 0.00 |
| 05/07/26 4:24:25 AM | 35 | 0.0 | 0.0 | 53 | 83 | 68.6 | 53.7 | 30.016 | 7.26 | 0.0 | 0 | 0.00 | 0.00 | 0.00 | 0.00 |
| 05/07/26 4:25:17 AM | 38 | 0.0 | 0.0 | 53 | 83 | 68.6 | 53.7 | 30.018 | 7.26 | 0.0 | 0 | 0.00 | 0.00 | 0.00 | 0.00 |
| 05/07/26 4:26:27 AM | 38 | 0.0 | 0.0 | 53 | 83 | 68.6 | 53.6 | 30.018 | 7.26 | 0.0 | 0 | 0.00 | 0.00 | 0.00 | 0.00 |
| 05/07/26 4:27:16 AM | 34 | 0.0 | 0.0 | 53 | 83 | 68.6 | 53.5 | 30.019 | 7.26 | 0.0 | 0 | 0.00 | 0.00 | 0.00 | 0.00 |
| 05/07/26 4:28:29 AM | 38 | 0.0 | 0.0 | 53 | 83 | 68.6 | 53.5 | 30.019 | 7.26 | 0.0 | 0 | 0.00 | 0.00 | 0.00 | 0.00 |
| 05/07/26 4:29:21 AM | 38 | 0.0 | 0.0 | 53 | 83 | 68.6 | 53.5 | 30.018 | 7.26 | 0.0 | 0 | 0.00 | 0.00 | 0.00 | 0.00 |
| 05/07/26 4:30:55 AM | 38 | 0.0 | 0.0 | 53 | 83 | 68.6 | 53.4 | 30.017 | 7.26 | 0.0 | 0 | 0.00 | 0.00 | 0.00 | 0.00 |
| 05/07/26 4:31:26 AM | 36 | 0.0 | 0.0 | 53 | 83 | 68.6 | 53.4 | 30.017 | 7.26 | 0.0 | 0 | 0.00 | 0.00 | 0.00 | 0.00 |
| 05/07/26 4:32:32 AM | 35 | 0.0 | 0.0 | 53 | 84 | 68.6 | 53.3 | 30.016 | 7.26 | 0.0 | 0 | 0.00 | 0.00 | 0.00 | 0.00 |
| 05/07/26 4:33:24 AM | 38 | 0.0 | 0.0 | 53 | 84 | 68.6 | 53.3 | 30.017 | 7.26 | 0.0 | 0 | 0.00 | 0.00 | 0.00 | 0.00 |
| 05/07/26 4:34:16 AM | 36 | 0.0 | 0.0 | 53 | 84 | 68.6 | 53.3 | 30.019 | 7.26 | 0.0 | 0 | 0.00 | 0.00 | 0.00 | 0.00 |
| 05/07/26 4:35:26 AM | 36 | 0.0 | 0.0 | 53 | 84 | 68.6 | 53.3 | 30.018 | 7.26 | 0.0 | 0 | 0.00 | 0.00 | 0.00 | 0.00 |
| 05/07/26 4:36:21 AM | 35 | 0.0 | 0.0 | 53 | 84 | 68.6 | 53.3 | 30.018 | 7.26 | 0.0 | 0 | 0.00 | 0.00 | 0.00 | 0.00 |
| 05/07/26 4:37:28 AM | 34 | 0.0 | 0.0 | 53 | 84 | 68.6 | 53.3 | 30.018 | 7.26 | 0.0 | 0 | 0.00 | 0.00 | 0.00 | 0.00 |
| 05/07/26 4:38:20 AM | 34 | 0.0 | 0.0 | 53 | 84 | 68.5 | 53.4 | 30.019 | 7.26 | 0.0 | 0 | 0.00 | 0.00 | 0.00 | 0.00 |
| 05/07/26 4:39:30 AM | 36 | 0.0 | 0.0 | 53 | 84 | 68.5 | 53.4 | 30.015 | 7.26 | 0.0 | 0 | 0.00 | 0.00 | 0.00 | 0.00 |
| 05/07/26 4:40:25 AM | 36 | 0.0 | 0.0 | 53 | 84 | 68.5 | 53.4 | 30.016 | 7.26 | 0.0 | 0 | 0.00 | 0.00 | 0.00 | 0.00 |
| 05/07/26 4:41:35 AM | 35 | 0.0 | 0.0 | 53 | 85 | 68.5 | 53.4 | 30.016 | 7.26 | 0.0 | 0 | 0.00 | 0.00 | 0.00 | 0.00 |
| 05/07/26 4:42:30 AM | 38 | 0.0 | 0.0 | 53 | 85 | 68.5 | 53.4 | 30.016 | 7.26 | 0.0 | 0 | 0.00 | 0.00 | 0.00 | 0.00 |
| 05/07/26 4:43:37 AM | 35 | 0.0 | 0.0 | 53 | 85 | 68.5 | 53.4 | 30.014 | 7.26 | 0.0 | 0 | 0.00 | 0.00 | 0.00 | 0.00 |
| 05/07/26 4:44:29 AM | 35 | 0.0 | 0.0 | 53 | 85 | 68.4 | 53.4 | 30.013 | 7.26 | 0.0 | 0 | 0.00 | 0.00 | 0.00 | 0.00 |
| 05/07/26 4:45:24 AM | 38 | 0.0 | 0.0 | 53 | 85 | 68.5 | 53.4 | 30.015 | 7.26 | 0.0 | 0 | 0.00 | 0.00 | 0.00 | 0.00 |
| 05/07/26 4:46:34 AM | 35 | 0.0 | 0.0 | 53 | 85 | 68.4 | 53.4 | 30.014 | 7.26 | 0.0 | 0 | 0.00 | 0.00 | 0.00 | 0.00 |
| 05/07/26 4:47:25 AM | 38 | 0.0 | 0.0 | 53 | 85 | 68.4 | 53.4 | 30.014 | 7.26 | 0.0 | 0 | 0.00 | 0.00 | 0.00 | 0.00 |
| 05/07/26 4:48:35 AM | 38 | 0.0 | 0.0 | 53 | 85 | 68.4 | 53.4 | 30.014 | 7.26 | 0.0 | 0 | 0.00 | 0.00 | 0.00 | 0.00 |
| 05/07/26 4:49:27 AM | 38 | 0.0 | 0.0 | 53 | 85 | 68.5 | 53.4 | 30.014 | 7.26 | 0.0 | 0 | 0.00 | 0.00 | 0.00 | 0.00 |
| 05/07/26 4:50:19 AM | 38 | 0.0 | 0.0 | 53 | 85 | 68.5 | 53.3 | 30.013 | 7.26 | 0.0 | 0 | 0.00 | 0.00 | 0.00 | 0.00 |
| 05/07/26 4:51:32 AM | 35 | 0.0 | 0.0 | 53 | 85 | 68.5 | 53.4 | 30.014 | 7.26 | 0.0 | 0 | 0.00 | 0.00 | 0.00 | 0.00 |
| 05/07/26 4:52:24 AM | 38 | 0.0 | 0.0 | 53 | 85 | 68.5 | 53.3 | 30.015 | 7.26 | 0.0 | 0 | 0.00 | 0.00 | 0.00 | 0.00 |
| 05/07/26 4:53:31 AM | 35 | 0.0 | 0.0 | 53 | 85 | 68.5 | 53.3 | 30.014 | 7.26 | 0.0 | 0 | 0.00 | 0.00 | 0.00 | 0.00 |
| 05/07/26 4:54:23 AM | 32 | 0.0 | 0.0 | 53 | 85 | 68.5 | 53.3 | 30.013 | 7.26 | 0.0 | 0 | 0.00 | 0.00 | 0.00 | 0.00 |
| 05/07/26 4:55:36 AM | 38 | 0.0 | 0.0 | 53 | 84 | 68.5 | 53.2 | 30.013 | 7.26 | 0.0 | 0 | 0.00 | 0.00 | 0.00 | 0.00 |
| 05/07/26 4:56:25 AM | 38 | 0.0 | 0.0 | 53 | 84 | 68.5 | 53.2 | 30.013 | 7.26 | 0.0 | 0 | 0.00 | 0.00 | 0.00 | 0.00 |
| 05/07/26 4:57:16 AM | 38 | 0.0 | 0.0 | 53 | 84 | 68.5 | 53.2 | 30.013 | 7.26 | 0.0 | 0 | 0.00 | 0.00 | 0.00 | 0.00 |
| 05/07/26 4:58:29 AM | 39 | 0.0 | 0.0 | 53 | 85 | 68.5 | 53.2 | 30.014 | 7.26 | 0.0 | 0 | 0.00 | 0.00 | 0.00 | 0.00 |
| 05/07/26 4:59:18 AM | 35 | 0.0 | 0.0 | 53 | 84 | 68.5 | 53.2 | 30.013 | 7.26 | 0.0 | 0 | 0.00 | 0.00 | 0.00 | 0.00 |
| 05/07/26 5:00:53 AM | 38 | 0.0 | 0.0 | 53 | 84 | 68.4 | 53.2 | 30.014 | 7.26 | 0.0 | 0 | 0.00 | 0.00 | 0.00 | 0.00 |
| 05/07/26 5:01:23 AM | 32 | 0.0 | 0.0 | 53 | 85 | 68.5 | 53.2 | 30.014 | 7.26 | 0.0 | 0 | 0.00 | 0.00 | 0.00 | 0.00 |
| 05/07/26 5:02:36 AM | 35 | 0.0 | 0.0 | 53 | 85 | 68.4 | 53.1 | 30.014 | 7.26 | 0.0 | 0 | 0.00 | 0.00 | 0.00 | 0.00 |
| 05/07/26 5:03:28 AM | 36 | 0.0 | 0.0 | 53 | 85 | 68.4 | 53.2 | 30.013 | 7.26 | 0.0 | 0 | 0.00 | 0.00 | 0.00 | 0.00 |
| 05/07/26 5:04:17 AM | 38 | 0.0 | 0.0 | 53 | 85 | 68.4 | 53.2 | 30.013 | 7.26 | 0.0 | 0 | 0.00 | 0.00 | 0.00 | 0.00 |
| 05/07/26 5:05:27 AM | 35 | 0.0 | 0.0 | 53 | 85 | 68.4 | 53.1 | 30.014 | 7.26 | 0.0 | 0 | 0.00 | 0.00 | 0.00 | 0.00 |
| 05/07/26 5:06:19 AM | 38 | 0.0 | 0.0 | 53 | 85 | 68.4 | 53.1 | 30.012 | 7.26 | 0.0 | 0 | 0.00 | 0.00 | 0.00 | 0.00 |
| 05/07/26 5:07:32 AM | 38 | 0.0 | 0.0 | 53 | 85 | 68.3 | 53.1 | 30.012 | 7.26 | 0.0 | 0 | 0.00 | 0.00 | 0.00 | 0.00 |
| 05/07/26 5:08:24 AM | 35 | 0.0 | 0.0 | 53 | 85 | 68.3 | 53.1 | 30.013 | 7.26 | 0.0 | 0 | 0.00 | 0.00 | 0.00 | 0.00 |
| 05/07/26 5:09:37 AM | 34 | 0.0 | 0.0 | 53 | 85 | 68.2 | 53.1 | 30.011 | 7.26 | 0.0 | 0 | 0.00 | 0.00 | 0.00 | 0.00 |
| 05/07/26 5:10:26 AM | 39 | 0.0 | 0.0 | 53 | 85 | 68.0 | 53.1 | 30.012 | 7.26 | 0.0 | 0 | 0.00 | 0.00 | 0.00 | 0.00 |
| 05/07/26 5:11:36 AM | 35 | 0.0 | 0.0 | 53 | 85 | 67.9 | 53.1 | 30.009 | 7.26 | 0.0 | 0 | 0.00 | 0.00 | 0.00 | 0.00 |
| 05/07/26 5:12:28 AM | 38 | 0.0 | 0.0 | 53 | 85 | 67.8 | 53.1 | 30.012 | 7.26 | 0.0 | 0 | 0.00 | 0.00 | 0.00 | 0.00 |
| 05/07/26 5:13:19 AM | 32 | 0.0 | 0.0 | 53 | 85 | 67.7 | 53.0 | 30.011 | 7.26 | 0.0 | 0 | 0.00 | 0.00 | 0.00 | 0.00 |
| 05/07/26 5:14:32 AM | 35 | 0.0 | 0.0 | 53 | 85 | 67.7 | 53.0 | 30.006 | 7.26 | 0.0 | 0 | 0.00 | 0.00 | 0.00 | 0.00 |
| 05/07/26 5:15:42 AM | 38 | 0.0 | 0.0 | 53 | 85 | 67.5 | 52.9 | 30.009 | 7.26 | 0.0 | 0 | 0.00 | 0.00 | 0.00 | 0.00 |
| 05/07/26 5:16:34 AM | 34 | 0.0 | 0.0 | 53 | 85 | 67.4 | 52.9 | 30.009 | 7.26 | 0.0 | 0 | 0.00 | 0.00 | 0.00 | 0.00 |
| 05/07/26 5:17:26 AM | 35 | 0.0 | 0.0 | 53 | 85 | 67.3 | 52.8 | 30.009 | 7.26 | 0.0 | 0 | 0.00 | 0.00 | 0.00 | 0.00 |
| 05/07/26 5:18:18 AM | 36 | 0.0 | 0.0 | 53 | 85 | 67.2 | 52.8 | 30.009 | 7.26 | 0.0 | 0 | 0.00 | 0.00 | 0.00 | 0.00 |
| 05/07/26 5:19:31 AM | 36 | 0.0 | 0.0 | 53 | 85 | 67.1 | 52.8 | 30.008 | 7.26 | 0.0 | 0 | 0.00 | 0.00 | 0.00 | 0.00 |
| 05/07/26 5:20:20 AM | 35 | 0.0 | 0.0 | 53 | 85 | 67.0 | 52.8 | 30.009 | 7.26 | 0.0 | 0 | 0.00 | 0.00 | 0.00 | 0.00 |
| 05/07/26 5:22:52 AM | 32 | 0.0 | 0.0 | 53 | 85 | 66.8 | 52.9 | 30.011 | 7.26 | 0.0 | 0 | 0.00 | 0.00 | 0.00 | 0.00 |
| 05/07/26 5:23:25 AM | 38 | 0.0 | 0.0 | 53 | 85 | 66.6 | 52.8 | 30.010 | 7.26 | 0.0 | 0 | 0.00 | 0.00 | 0.00 | 0.00 |
| 05/07/26 5:24:35 AM | 38 | 0.0 | 0.0 | 53 | 85 | 66.5 | 52.9 | 30.007 | 7.26 | 0.0 | 0 | 0.00 | 0.00 | 0.00 | 0.00 |
| 05/07/26 5:25:27 AM | 32 | 0.0 | 0.0 | 53 | 85 | 66.4 | 52.9 | 30.012 | 7.26 | 0.0 | 0 | 0.00 | 0.00 | 0.00 | 0.00 |
| 05/07/26 5:26:22 AM | 38 | 0.0 | 0.0 | 53 | 85 | 66.4 | 52.9 | 30.010 | 7.26 | 0.0 | 0 | 0.00 | 0.00 | 0.00 | 0.00 |
| 05/07/26 5:27:29 AM | 38 | 0.0 | 0.0 | 53 | 85 | 66.3 | 52.8 | 30.013 | 7.26 | 0.0 | 0 | 0.00 | 0.00 | 0.00 | 0.00 |
| 05/07/26 5:28:21 AM | 36 | 0.0 | 0.0 | 53 | 85 | 66.2 | 52.8 | 30.012 | 7.26 | 0.0 | 0 | 0.00 | 0.00 | 0.00 | 0.00 |
| 05/07/26 5:29:34 AM | 39 | 0.0 | 0.0 | 53 | 85 | 66.1 | 52.8 | 30.011 | 7.26 | 0.0 | 0 | 0.00 | 0.00 | 0.00 | 0.00 |
| 05/07/26 5:30:50 AM | 36 | 0.0 | 0.0 | 53 | 85 | 66.1 | 52.8 | 30.009 | 7.26 | 0.0 | 0 | 0.00 | 0.00 | 0.00 | 0.00 |
| 05/07/26 5:31:18 AM | 36 | 0.0 | 0.0 | 54 | 85 | 66.0 | 52.8 | 30.007 | 7.26 | 0.0 | 0 | 0.00 | 0.00 | 0.00 | 0.00 |
| 05/07/26 5:32:31 AM | 38 | 0.0 | 0.0 | 54 | 85 | 65.9 | 52.7 | 30.010 | 7.26 | 0.0 | 0 | 0.00 | 0.00 | 0.00 | 0.00 |
| 05/07/26 5:33:17 AM | 38 | 0.0 | 0.0 | 54 | 85 | 65.8 | 52.7 | 30.007 | 7.26 | 0.0 | 0 | 0.00 | 0.00 | 0.00 | 0.00 |
| 05/07/26 5:34:30 AM | 36 | 0.0 | 0.0 | 54 | 85 | 65.7 | 52.7 | 30.009 | 7.26 | 0.0 | 0 | 0.00 | 0.00 | 0.00 | 0.00 |
| 05/07/26 5:35:22 AM | 38 | 0.0 | 0.0 | 54 | 85 | 65.7 | 52.7 | 30.008 | 7.26 | 0.0 | 0 | 0.00 | 0.00 | 0.00 | 0.00 |
| 05/07/26 5:36:35 AM | 36 | 0.0 | 0.0 | 54 | 85 | 65.6 | 52.6 | 30.006 | 7.26 | 0.0 | 0 | 0.00 | 0.00 | 0.00 | 0.00 |
| 05/07/26 5:37:27 AM | 32 | 0.0 | 0.0 | 55 | 85 | 65.5 | 52.6 | 30.007 | 7.26 | 0.0 | 0 | 0.00 | 0.00 | 0.00 | 0.00 |
| 05/07/26 5:38:19 AM | 35 | 0.0 | 0.0 | 55 | 85 | 65.5 | 52.6 | 30.007 | 7.26 | 0.0 | 0 | 0.00 | 0.00 | 0.00 | 0.00 |
| 05/07/26 5:39:26 AM | 38 | 0.0 | 0.0 | 55 | 85 | 65.4 | 52.6 | 30.007 | 7.26 | 0.0 | 0 | 0.00 | 0.00 | 0.00 | 0.00 |
| 05/07/26 5:40:18 AM | 38 | 0.0 | 0.0 | 55 | 85 | 65.4 | 52.6 | 30.007 | 7.26 | 0.0 | 0 | 0.00 | 0.00 | 0.00 | 0.00 |
| 05/07/26 5:41:31 AM | 38 | 0.0 | 0.0 | 55 | 85 | 65.3 | 52.6 | 30.007 | 7.26 | 0.0 | 0 | 0.00 | 0.00 | 0.00 | 0.00 |
| 05/07/26 5:42:23 AM | 38 | 0.0 | 0.0 | 55 | 85 | 65.2 | 52.5 | 30.007 | 7.26 | 0.0 | 0 | 0.00 | 0.00 | 0.00 | 0.00 |
University Police wind advisory reference
For campus closure information please call the campus Emergency Hotline at (909) 537-5999
© All rights reserved. Unauthorized duplication or distribution is prohibited
Never base important decisions on this or any weather information obtained from the Internet
California State University, San Bernardino
5500 University Parkway, San Bernardino, CA. 92407
Phone: (909) 537-5108, Email: Weather Webmaster
Last Updated: